Brno, Czech Republic

7:45 AM CEST on May 28, 2018 (GMT +0200)
Turany

Weather History for LKTB - December, 2012

Change the Weather History Date:

Wednesday, December 12, 2012

  Actual Average Record
Temperature  
Mean Temperature 20 °F -  
Max Temperature 26 °F 34 °F - ()
Min Temperature 14 °F 25 °F - ()
Degree Days  
Heating Degree Days 45    
Moisture  
Dew Point 15 °F    
Average Humidity 79    
Maximum Humidity 93    
Minimum Humidity 52    
Precipitation  
Precipitation 0.00 in 0.03 in - ()
Sea Level Pressure  
Sea Level Pressure 30.11 in    
Wind  
Wind Speed 4 mph ()    
Max Wind Speed 14 mph    
Max Gust Speed -    
Visibility 5.5 miles    
Events Fog , Snow    
T = Trace of Precipitation, MM = Missing Value Source: Averaged Metar Reports

Daily Weather History Graph

Daily Weather History Graph

Search for Another Location

Airport or City:

Astronomy

Dec. 12, 2012 Rise Set
Actual Time 7:38 AM CET 3:55 PM CET
Civil Twilight 7:01 AM CET 4:32 PM CET
Nautical Twilight 6:20 AM CET 5:13 PM CET
Astronomical Twilight 5:42 AM CET 5:51 PM CET
Moon 6:20 AM CET (12/12) 3:16 PM CET (12/12)
Length of Visible Light 9h 30m
Length of Day
8h 16m
Waning Crescent, 1% of the Moon is Illuminated
Dec 12
Waning Crescent
Dec 13
New
Dec 20
First Quarter
Dec 28
Full
Jan 5
Last Quarter

Hourly Weather History & Observations

Time (CET) Temp. Windchill Dew Point Humidity Pressure Visibility Wind Dir Wind Speed Gust Speed Precip Events Conditions
12:00 AM 17.6 °F - 15.8 °F 93% 30.06 in 2.5 mi Calm Calm - N/A   Partly Cloudy
12:30 AM 15.8 °F - 14.0 °F 93% 30.06 in 2.5 mi Calm Calm - N/A Fog Partly Cloudy
1:00 AM 18 °F - 14 °F 79% 30.16 in 2 mi NE 4.5 mph - -   Mist
1:00 AM 17.6 °F 10.7 °F 14.0 °F 86% 30.06 in 2.5 mi ENE 4.6 mph - N/A   Partly Cloudy
1:30 AM 17.6 °F - 15.8 °F 93% 30.06 in 2.5 mi Variable 2.3 mph - N/A   Partly Cloudy
2:00 AM 17.6 °F - 15.8 °F 93% 30.09 in 2.8 mi Variable 2.3 mph - N/A   Mostly Cloudy
2:30 AM 17.6 °F - 14.0 °F 86% 30.09 in 2.8 mi Variable 2.3 mph - N/A   Mostly Cloudy
2:38 AM 17.6 °F - 15.8 °F 93% 30.09 in 2.8 mi Calm Calm - N/A Snow Light Snow
3:00 AM 17.6 °F - 15.8 °F 93% 30.09 in 1.9 mi Variable 1.2 mph - N/A Snow Light Snow
3:30 AM 17.6 °F 12.3 °F 15.8 °F 93% 30.09 in 3.1 mi WSW 3.5 mph - N/A Snow Light Snow
4:00 AM 15.8 °F - 14.0 °F 93% 30.06 in 3.1 mi SSW 2.3 mph - N/A   Mostly Cloudy
4:30 AM 17.6 °F - 14.0 °F 86% 30.06 in 4.3 mi Variable 2.3 mph - N/A   Mostly Cloudy
5:00 AM 23.0 °F 17.0 °F 19.4 °F 86% 30.06 in 6.2 mi WNW 4.6 mph - N/A   Partly Cloudy
5:30 AM 23.0 °F 14.7 °F 19.4 °F 86% 30.06 in 6.2 mi NW 6.9 mph - N/A   Scattered Clouds
6:00 AM 23.0 °F - 17.6 °F 80% 30.09 in 6.2 mi Variable 2.3 mph - N/A   Partly Cloudy
6:30 AM 23.0 °F 18.4 °F 17.6 °F 80% 30.09 in 6.2 mi Variable 3.5 mph - N/A   Partly Cloudy
6:43 AM 23.0 °F 14.7 °F 17.6 °F 80% 30.09 in 6.2 mi WNW 6.9 mph - N/A Snow Light Snow
7:00 AM 23 °F - 17 °F 69% 30.17 in 6 mi West 8.9 mph - - Snow Light Snow
7:00 AM 23.0 °F 14.7 °F 17.6 °F 80% 30.09 in 6.2 mi West 6.9 mph - N/A Snow Light Snow
7:30 AM 23.0 °F 17.0 °F 17.6 °F 80% 30.09 in 6.2 mi West 4.6 mph - N/A Snow Light Snow
8:00 AM 23.0 °F 17.0 °F 17.6 °F 80% 30.12 in 6.2 mi West 4.6 mph - N/A Snow Light Snow
8:30 AM 21.2 °F 14.9 °F 17.6 °F 86% 30.12 in 6.2 mi West 4.6 mph - N/A Snow Light Snow
9:00 AM 23.0 °F 15.8 °F 17.6 °F 80% 30.12 in 6.2 mi West 5.8 mph - N/A Snow Light Snow
9:30 AM 23.0 °F 13.1 °F 17.6 °F 80% 30.12 in 6.2 mi WNW 9.2 mph - N/A Snow Light Snow
10:00 AM 23.0 °F 13.1 °F 17.6 °F 80% 30.12 in 6.2 mi WNW 9.2 mph - N/A Snow Light Snow
10:30 AM 23.0 °F 13.1 °F 17.6 °F 80% 30.12 in - WNW 9.2 mph - N/A   Clear
11:00 AM 23.0 °F 14.7 °F 15.8 °F 74% 30.12 in - WNW 6.9 mph - N/A   Clear
11:30 AM 24.8 °F 15.3 °F 17.6 °F 74% 30.12 in - WNW 9.2 mph - N/A   Clear
12:00 PM 24.8 °F 16.1 °F 17.6 °F 74% 30.12 in - WNW 8.1 mph - N/A   Clear
12:30 PM 26.6 °F 17.5 °F 17.6 °F 69% 30.12 in - WNW 9.2 mph - N/A   Clear
1:00 PM 26 °F - 15 °F 52% 30.20 in 19 mi WNW 8.9 mph - -   Partly Cloudy
1:00 PM 26.6 °F 17.5 °F 17.6 °F 69% 30.12 in - WNW 9.2 mph - N/A   Clear
1:30 PM 24.8 °F 16.1 °F 15.8 °F 69% 30.12 in - West 8.1 mph - N/A   Clear
2:00 PM 26.6 °F 17.5 °F 15.8 °F 64% 30.12 in - West 9.2 mph - N/A   Clear
2:30 PM 24.8 °F 13.4 °F 15.8 °F 69% 30.12 in - West 12.7 mph - N/A   Clear
3:00 PM 23.0 °F 10.6 °F 14.0 °F 68% 30.12 in - West 13.8 mph - N/A   Clear
3:06 PM 23.0 °F 10.6 °F 14.0 °F 68% 30.12 in - West 13.8 mph - N/A   Clear
3:30 PM 23.0 °F 11.7 °F 14.0 °F 68% 30.12 in - West 11.5 mph - N/A   Clear
4:00 PM 21.2 °F 11.7 °F 12.2 °F 68% 30.12 in - West 8.1 mph - N/A   Clear
4:30 PM 19.4 °F 7.2 °F 14.0 °F 80% 30.12 in - West 11.5 mph - N/A   Clear
5:00 PM 17.6 °F 6.4 °F 10.4 °F 73% 30.12 in - West 9.2 mph - N/A   Clear
5:30 PM 19.4 °F 11.5 °F 14.0 °F 80% 30.12 in - West 5.8 mph - N/A   Clear
6:00 PM 17.6 °F 10.7 °F 12.2 °F 79% 30.12 in 6.2 mi WSW 4.6 mph - N/A   Mostly Cloudy
6:30 PM 19.4 °F 14.3 °F 14.0 °F 80% 30.12 in 6.2 mi West 3.5 mph - N/A   Mostly Cloudy
7:00 PM 21 °F - 13 °F 61% 30.22 in 9 mi SE 2.2 mph - -   Mostly Cloudy
7:00 PM 19.4 °F - 14.0 °F 80% 30.12 in 6.2 mi Variable 2.3 mph - N/A   Mostly Cloudy
7:30 PM 19.4 °F 14.3 °F 12.2 °F 74% 30.12 in 6.2 mi ENE 3.5 mph - N/A   Mostly Cloudy
8:00 PM 17.6 °F 9.3 °F 14.0 °F 86% 30.12 in 6.2 mi ENE 5.8 mph - N/A   Mostly Cloudy
8:30 PM 17.6 °F - 12.2 °F 79% 30.12 in 6.2 mi Variable 1.2 mph - N/A   Mostly Cloudy
9:00 PM 17.6 °F - 14.0 °F 86% 30.12 in 6.2 mi SE 2.3 mph - N/A   Mostly Cloudy
9:30 PM 19.4 °F 14.3 °F 14.0 °F 80% 30.12 in 6.2 mi Variable 3.5 mph - N/A   Mostly Cloudy
10:00 PM 21.2 °F - 15.8 °F 80% 30.12 in 6.2 mi Variable 2.3 mph - N/A   Mostly Cloudy
10:30 PM 19.4 °F 12.8 °F 15.8 °F 86% 30.12 in 6.2 mi ENE 4.6 mph - N/A   Overcast
11:00 PM 19.4 °F 14.3 °F 15.8 °F 86% 30.12 in 6.2 mi NE 3.5 mph - N/A   Mostly Cloudy
11:30 PM 19.4 °F 12.8 °F 15.8 °F 86% 30.12 in 6.2 mi ENE 4.6 mph - N/A   Mostly Cloudy